Time,TemperatureF,DewpointF,PressureIn,WindDirection,WindDirectionDegrees,WindSpeedMPH,WindSpeedGustMPH,Humidity,HourlyPrecipIn,Conditions,Clouds,dailyrainin,SoftwareType,DateUTC
2018-04-26 00:00:00,40.5,30.7,30.15,North,-9999,0.0,0.0,68,0.00,,,-99.99,FreeWX-Wi 1.01,2018-04-26 06:00:00,
2018-04-26 00:05:00,40.1,30.7,30.15,North,-9999,0.0,0.0,69,0.00,,,-99.99,FreeWX-Wi 1.01,2018-04-26 06:05:00,
2018-04-26 00:10:00,40.1,30.7,30.15,North,-9999,0.0,0.0,69,0.00,,,-99.99,FreeWX-Wi 1.01,2018-04-26 06:10:00,
2018-04-26 00:15:00,39.9,30.2,30.18,North,-9999,0.0,0.0,68,0.00,,,-99.99,FreeWX-Wi 1.01,2018-04-26 06:15:00,
2018-04-26 00:20:00,39.7,30.4,30.18,North,-9999,0.0,0.0,69,0.00,,,-99.99,FreeWX-Wi 1.01,2018-04-26 06:20:00,
2018-04-26 00:25:00,39.6,30.6,30.18,North,-9999,0.0,0.0,70,0.00,,,-99.99,FreeWX-Wi 1.01,2018-04-26 06:25:00,
2018-04-26 00:30:00,39.4,30.4,30.18,North,-9999,0.0,0.0,70,0.00,,,-99.99,FreeWX-Wi 1.01,2018-04-26 06:30:00,
2018-04-26 00:35:00,39.4,30.4,30.18,North,-9999,0.0,0.0,70,0.00,,,-99.99,FreeWX-Wi 1.01,2018-04-26 06:35:00,
2018-04-26 00:40:00,39.2,30.6,30.18,North,-9999,0.0,0.0,71,0.00,,,-99.99,FreeWX-Wi 1.01,2018-04-26 06:40:00,
2018-04-26 00:45:00,38.8,29.8,30.18,North,-9999,0.0,0.0,70,0.00,,,-99.99,FreeWX-Wi 1.01,2018-04-26 06:45:00,
2018-04-26 00:50:00,38.7,29.7,30.18,North,-9999,0.0,0.0,70,0.00,,,-99.99,FreeWX-Wi 1.01,2018-04-26 06:50:00,
2018-04-26 00:55:00,38.5,29.8,30.18,North,-9999,0.0,0.0,71,0.00,,,-99.99,FreeWX-Wi 1.01,2018-04-26 06:55:00,
2018-04-26 01:00:00,38.7,30.4,30.18,North,-9999,0.0,0.0,72,0.00,,,-99.99,FreeWX-Wi 1.01,2018-04-26 07:00:00,
2018-04-26 01:05:00,38.7,30.0,30.18,North,-9999,0.0,0.0,71,0.00,,,-99.99,FreeWX-Wi 1.01,2018-04-26 07:05:00,
2018-04-26 01:10:00,38.5,29.5,30.18,North,-9999,0.0,0.0,70,0.00,,,-99.99,FreeWX-Wi 1.01,2018-04-26 07:10:00,
2018-04-26 01:15:00,38.1,29.3,30.21,North,-9999,0.0,0.0,70,0.00,,,-99.99,FreeWX-Wi 1.01,2018-04-26 07:15:00,
2018-04-26 01:20:00,37.6,29.1,30.21,North,-9999,0.0,0.0,71,0.00,,,-99.99,FreeWX-Wi 1.01,2018-04-26 07:20:00,
2018-04-26 01:25:00,37.4,29.5,30.21,North,-9999,0.0,0.0,73,0.00,,,-99.99,FreeWX-Wi 1.01,2018-04-26 07:25:00,
2018-04-26 01:30:00,37.2,30.4,30.18,North,-9999,0.0,0.0,76,0.00,,,-99.99,FreeWX-Wi 1.01,2018-04-26 07:30:00,
2018-04-26 01:35:00,37.2,30.4,30.18,North,-9999,0.0,0.0,76,0.00,,,-99.99,FreeWX-Wi 1.01,2018-04-26 07:35:00,
2018-04-26 01:40:00,37.0,29.8,30.18,North,-9999,0.0,0.0,75,0.00,,,-99.99,FreeWX-Wi 1.01,2018-04-26 07:40:00,
2018-04-26 01:45:00,37.0,29.8,30.18,North,-9999,0.0,0.0,75,0.00,,,-99.99,FreeWX-Wi 1.01,2018-04-26 07:45:00,
2018-04-26 01:50:00,37.0,30.6,30.18,North,-9999,0.0,0.0,77,0.00,,,-99.99,FreeWX-Wi 1.01,2018-04-26 07:50:00,
2018-04-26 01:55:00,36.9,30.4,30.18,North,-9999,0.0,0.0,77,0.00,,,-99.99,FreeWX-Wi 1.01,2018-04-26 07:55:00,
2018-04-26 02:00:00,36.9,30.4,30.18,North,-9999,0.0,0.0,77,0.00,,,-99.99,FreeWX-Wi 1.01,2018-04-26 08:00:00,
2018-04-26 02:05:00,36.9,30.0,30.21,North,-9999,0.0,0.0,76,0.00,,,-99.99,FreeWX-Wi 1.01,2018-04-26 08:05:00,
2018-04-26 02:10:00,36.9,30.0,30.21,North,-9999,0.0,0.0,76,0.00,,,-99.99,FreeWX-Wi 1.01,2018-04-26 08:10:00,
2018-04-26 02:15:00,36.7,29.8,30.21,North,-9999,0.0,0.0,76,0.00,,,-99.99,FreeWX-Wi 1.01,2018-04-26 08:15:00,
2018-04-26 02:20:00,36.5,29.3,30.21,North,-9999,0.0,0.0,75,0.00,,,-99.99,FreeWX-Wi 1.01,2018-04-26 08:20:00,
2018-04-26 02:25:00,36.7,29.5,30.21,North,-9999,0.0,0.0,75,0.00,,,-99.99,FreeWX-Wi 1.01,2018-04-26 08:25:00,
2018-04-26 02:30:00,36.7,29.1,30.21,North,-9999,0.0,0.0,74,0.00,,,-99.99,FreeWX-Wi 1.01,2018-04-26 08:30:00,
2018-04-26 02:35:00,36.7,29.1,30.21,North,-9999,0.0,0.0,74,0.00,,,-99.99,FreeWX-Wi 1.01,2018-04-26 08:35:00,
2018-04-26 02:40:00,36.3,28.8,30.21,North,-9999,0.0,0.0,74,0.00,,,-99.99,FreeWX-Wi 1.01,2018-04-26 08:40:00,
2018-04-26 02:45:00,36.3,29.1,30.21,North,-9999,0.0,0.0,75,0.00,,,-99.99,FreeWX-Wi 1.01,2018-04-26 08:45:00,
2018-04-26 02:50:00,36.5,28.9,30.21,North,-9999,0.0,0.0,74,0.00,,,-99.99,FreeWX-Wi 1.01,2018-04-26 08:50:00,
2018-04-26 02:55:00,36.3,28.6,30.21,North,-9999,0.0,0.0,73,0.00,,,-99.99,FreeWX-Wi 1.01,2018-04-26 08:55:00,
2018-04-26 03:00:00,36.1,28.4,30.21,North,-9999,0.0,0.0,73,0.00,,,-99.99,FreeWX-Wi 1.01,2018-04-26 09:00:00,
2018-04-26 03:05:00,36.1,28.6,30.21,North,-9999,0.0,0.0,74,0.00,,,-99.99,FreeWX-Wi 1.01,2018-04-26 09:05:00,
2018-04-26 03:10:00,35.8,28.4,30.21,North,-9999,0.0,0.0,74,0.00,,,-99.99,FreeWX-Wi 1.01,2018-04-26 09:10:00,
2018-04-26 03:15:00,35.6,28.2,30.21,North,-9999,0.0,0.0,74,0.00,,,-99.99,FreeWX-Wi 1.01,2018-04-26 09:15:00,
2018-04-26 03:20:00,35.6,28.4,30.21,North,-9999,0.0,0.0,75,0.00,,,-99.99,FreeWX-Wi 1.01,2018-04-26 09:20:00,
2018-04-26 03:25:00,35.4,28.9,30.21,North,-9999,0.0,0.0,77,0.00,,,-99.99,FreeWX-Wi 1.01,2018-04-26 09:25:00,
2018-04-26 03:30:00,35.2,29.1,30.21,North,-9999,0.0,0.0,78,0.00,,,-99.99,FreeWX-Wi 1.01,2018-04-26 09:30:00,
2018-04-26 03:35:00,35.1,28.9,30.21,North,-9999,0.0,0.0,78,0.00,,,-99.99,FreeWX-Wi 1.01,2018-04-26 09:35:00,
2018-04-26 03:40:00,34.7,28.6,30.21,North,-9999,0.0,0.0,78,0.00,,,-99.99,FreeWX-Wi 1.01,2018-04-26 09:40:00,
2018-04-26 03:45:00,34.5,28.4,30.21,North,-9999,0.0,0.0,78,0.00,,,-99.99,FreeWX-Wi 1.01,2018-04-26 09:45:00,
2018-04-26 03:50:00,34.7,29.1,30.21,North,-9999,0.0,0.0,80,0.00,,,-99.99,FreeWX-Wi 1.01,2018-04-26 09:50:00,
2018-04-26 03:55:00,35.1,29.8,30.21,North,-9999,0.0,0.0,81,0.00,,,-99.99,FreeWX-Wi 1.01,2018-04-26 09:55:00,
2018-04-26 04:00:00,35.4,30.2,30.21,North,-9999,0.0,0.0,81,0.00,,,-99.99,FreeWX-Wi 1.01,2018-04-26 10:00:00,
2018-04-26 04:05:00,35.2,29.5,30.21,North,-9999,0.0,0.0,79,0.00,,,-99.99,FreeWX-Wi 1.01,2018-04-26 10:05:00,
2018-04-26 04:10:00,34.9,29.1,30.21,North,-9999,0.0,0.0,79,0.00,,,-99.99,FreeWX-Wi 1.01,2018-04-26 10:10:00,
2018-04-26 04:15:00,34.9,29.1,30.21,North,-9999,0.0,0.0,79,0.00,,,-99.99,FreeWX-Wi 1.01,2018-04-26 10:15:00,
2018-04-26 04:20:00,34.9,29.1,30.21,North,-9999,0.0,0.0,79,0.00,,,-99.99,FreeWX-Wi 1.01,2018-04-26 10:20:00,
2018-04-26 04:25:00,35.1,29.5,30.21,North,-9999,0.0,0.0,80,0.00,,,-99.99,FreeWX-Wi 1.01,2018-04-26 10:25:00,
2018-04-26 04:30:00,34.7,28.9,30.21,North,-9999,0.0,0.0,79,0.00,,,-99.99,FreeWX-Wi 1.01,2018-04-26 10:30:00,
2018-04-26 04:35:00,34.3,28.6,30.21,North,-9999,0.0,0.0,79,0.00,,,-99.99,FreeWX-Wi 1.01,2018-04-26 10:35:00,
2018-04-26 04:40:00,34.5,28.8,30.21,North,-9999,0.0,0.0,79,0.00,,,-99.99,FreeWX-Wi 1.01,2018-04-26 10:40:00,
2018-04-26 04:45:00,34.7,28.9,30.21,North,-9999,0.0,0.0,79,0.00,,,-99.99,FreeWX-Wi 1.01,2018-04-26 10:45:00,
2018-04-26 04:50:00,35.4,29.8,30.21,North,-9999,0.0,0.0,80,0.00,,,-99.99,FreeWX-Wi 1.01,2018-04-26 10:50:00,
2018-04-26 04:55:00,35.8,30.2,30.21,North,-9999,0.0,0.0,80,0.00,,,-99.99,FreeWX-Wi 1.01,2018-04-26 10:55:00,
2018-04-26 05:00:00,36.1,30.2,30.21,North,-9999,0.0,0.0,79,0.00,,,-99.99,FreeWX-Wi 1.01,2018-04-26 11:00:00,
2018-04-26 05:05:00,36.0,29.5,30.21,North,-9999,0.0,0.0,77,0.00,,,-99.99,FreeWX-Wi 1.01,2018-04-26 11:05:00,
2018-04-26 05:10:00,35.8,29.3,30.21,North,-9999,0.0,0.0,77,0.00,,,-99.99,FreeWX-Wi 1.01,2018-04-26 11:10:00,
2018-04-26 05:15:00,35.6,29.1,30.21,North,-9999,0.0,0.0,77,0.00,,,-99.99,FreeWX-Wi 1.01,2018-04-26 11:15:00,
2018-04-26 05:20:00,35.6,29.1,30.21,North,-9999,0.0,0.0,77,0.00,,,-99.99,FreeWX-Wi 1.01,2018-04-26 11:20:00,
2018-04-26 05:25:00,35.4,28.9,30.21,North,-9999,0.0,0.0,77,0.00,,,-99.99,FreeWX-Wi 1.01,2018-04-26 11:25:00,
2018-04-26 05:30:00,35.2,28.8,30.21,North,-9999,0.0,0.0,77,0.00,,,-99.99,FreeWX-Wi 1.01,2018-04-26 11:30:00,
2018-04-26 05:35:00,35.1,28.6,30.21,North,-9999,0.0,0.0,77,0.00,,,-99.99,FreeWX-Wi 1.01,2018-04-26 11:35:00,
2018-04-26 05:40:00,35.1,28.9,30.21,North,-9999,0.0,0.0,78,0.00,,,-99.99,FreeWX-Wi 1.01,2018-04-26 11:40:00,
2018-04-26 05:45:00,34.7,28.2,30.24,North,-9999,0.0,0.0,77,0.00,,,-99.99,FreeWX-Wi 1.01,2018-04-26 11:45:00,
2018-04-26 05:50:00,34.7,28.6,30.24,North,-9999,0.0,0.0,78,0.00,,,-99.99,FreeWX-Wi 1.01,2018-04-26 11:50:00,
2018-04-26 05:55:00,35.2,29.5,30.24,North,-9999,0.0,0.0,79,0.00,,,-99.99,FreeWX-Wi 1.01,2018-04-26 11:55:00,
2018-04-26 06:00:00,35.8,30.2,30.24,North,-9999,0.0,0.0,80,0.00,,,-99.99,FreeWX-Wi 1.01,2018-04-26 12:00:00,
2018-04-26 06:05:00,35.8,29.8,30.24,North,-9999,0.0,0.0,79,0.00,,,-99.99,FreeWX-Wi 1.01,2018-04-26 12:05:00,
2018-04-26 06:10:00,35.8,29.8,30.24,North,-9999,0.0,0.0,79,0.00,,,-99.99,FreeWX-Wi 1.01,2018-04-26 12:10:00,
2018-04-26 06:15:00,35.8,30.2,30.24,North,-9999,0.0,0.0,80,0.00,,,-99.99,FreeWX-Wi 1.01,2018-04-26 12:15:00,
2018-04-26 06:20:00,36.3,31.1,30.24,North,-9999,0.0,0.0,81,0.00,,,-99.99,FreeWX-Wi 1.01,2018-04-26 12:20:00,
2018-04-26 06:25:00,36.7,31.5,30.24,North,-9999,0.0,0.0,81,0.00,,,-99.99,FreeWX-Wi 1.01,2018-04-26 12:25:00,
2018-04-26 06:30:00,36.9,31.8,30.24,North,-9999,0.0,0.0,82,0.00,,,-99.99,FreeWX-Wi 1.01,2018-04-26 12:30:00,
2018-04-26 06:35:00,37.2,32.2,30.24,North,-9999,0.0,0.0,82,0.00,,,-99.99,FreeWX-Wi 1.01,2018-04-26 12:35:00,
2018-04-26 06:40:00,37.0,31.5,30.24,North,-9999,0.0,0.0,80,0.00,,,-99.99,FreeWX-Wi 1.01,2018-04-26 12:40:00,
2018-04-26 06:45:00,36.9,30.9,30.24,North,-9999,0.0,0.0,79,0.00,,,-99.99,FreeWX-Wi 1.01,2018-04-26 12:45:00,
2018-04-26 06:50:00,36.7,30.7,30.24,North,-9999,0.0,0.0,79,0.00,,,-99.99,FreeWX-Wi 1.01,2018-04-26 12:50:00,
2018-04-26 06:55:00,36.3,30.2,30.24,North,-9999,0.0,0.0,78,0.00,,,-99.99,FreeWX-Wi 1.01,2018-04-26 12:55:00,
2018-04-26 07:00:00,36.1,30.2,30.24,North,-9999,0.0,0.0,79,0.00,,,-99.99,FreeWX-Wi 1.01,2018-04-26 13:00:00,
2018-04-26 07:05:00,36.0,30.0,30.24,North,-9999,0.0,0.0,79,0.00,,,-99.99,FreeWX-Wi 1.01,2018-04-26 13:05:00,
2018-04-26 07:10:00,36.1,30.9,30.24,North,-9999,0.0,0.0,81,0.00,,,-99.99,FreeWX-Wi 1.01,2018-04-26 13:10:00,
2018-04-26 07:15:00,36.3,31.3,30.24,North,-9999,0.0,0.0,82,0.00,,,-99.99,FreeWX-Wi 1.01,2018-04-26 13:15:00,
2018-04-26 07:20:00,36.3,31.3,30.24,North,-9999,0.0,0.0,82,0.00,,,-99.99,FreeWX-Wi 1.01,2018-04-26 13:20:00,
2018-04-26 07:25:00,36.5,31.5,30.24,North,-9999,0.0,0.0,82,0.00,,,-99.99,FreeWX-Wi 1.01,2018-04-26 13:25:00,
2018-04-26 07:30:00,37.0,32.4,30.24,North,-9999,0.0,0.0,83,0.00,,,-99.99,FreeWX-Wi 1.01,2018-04-26 13:30:00,
2018-04-26 07:35:00,37.6,32.9,30.24,North,-9999,0.0,0.0,83,0.00,,,-99.99,FreeWX-Wi 1.01,2018-04-26 13:35:00,
2018-04-26 07:40:00,38.5,33.8,30.24,North,-9999,0.0,0.0,83,0.00,,,-99.99,FreeWX-Wi 1.01,2018-04-26 13:40:00,
2018-04-26 07:45:00,39.4,34.0,30.24,North,-9999,0.0,0.0,81,0.00,,,-99.99,FreeWX-Wi 1.01,2018-04-26 13:45:00,
2018-04-26 07:50:00,40.1,34.5,30.24,North,-9999,0.0,0.0,80,0.00,,,-99.99,FreeWX-Wi 1.01,2018-04-26 13:50:00,
2018-04-26 07:55:00,40.6,34.7,30.24,North,-9999,0.0,0.0,79,0.00,,,-99.99,FreeWX-Wi 1.01,2018-04-26 13:55:00,
2018-04-26 08:00:00,41.2,34.2,30.24,North,-9999,0.0,0.0,76,0.00,,,-99.99,FreeWX-Wi 1.01,2018-04-26 14:00:00,
2018-04-26 08:05:00,42.1,34.3,30.24,North,-9999,0.0,0.0,74,0.00,,,-99.99,FreeWX-Wi 1.01,2018-04-26 14:05:00,
2018-04-26 08:10:00,42.8,32.9,30.24,North,-9999,0.0,0.0,68,0.00,,,-99.99,FreeWX-Wi 1.01,2018-04-26 14:10:00,
2018-04-26 08:15:00,43.9,30.9,30.24,North,-9999,0.0,0.0,60,0.00,,,-99.99,FreeWX-Wi 1.01,2018-04-26 14:15:00,
2018-04-26 08:20:00,44.6,30.4,30.24,North,-9999,0.0,0.0,57,0.00,,,-99.99,FreeWX-Wi 1.01,2018-04-26 14:20:00,
2018-04-26 08:25:00,45.1,30.7,30.24,North,-9999,0.0,0.0,57,0.00,,,-99.99,FreeWX-Wi 1.01,2018-04-26 14:25:00,
2018-04-26 08:30:00,45.5,30.7,30.24,North,-9999,0.0,0.0,56,0.00,,,-99.99,FreeWX-Wi 1.01,2018-04-26 14:30:00,
2018-04-26 08:36:00,45.9,31.5,30.24,North,-9999,0.0,0.0,57,0.00,,,-99.99,FreeWX-Wi 1.01,2018-04-26 14:36:00,
2018-04-26 08:41:00,46.4,31.6,30.24,North,-9999,0.0,0.0,56,0.00,,,-99.99,FreeWX-Wi 1.01,2018-04-26 14:41:00,
2018-04-26 08:46:00,46.9,31.1,30.24,North,-9999,0.0,0.0,54,0.00,,,-99.99,FreeWX-Wi 1.01,2018-04-26 14:46:00,
2018-04-26 08:51:00,47.3,30.6,30.24,North,-9999,0.0,0.0,52,0.00,,,-99.99,FreeWX-Wi 1.01,2018-04-26 14:51:00,
2018-04-26 08:56:00,48.0,30.2,30.24,North,-9999,0.0,0.0,50,0.00,,,-99.99,FreeWX-Wi 1.01,2018-04-26 14:56:00,
2018-04-26 09:01:00,48.6,30.2,30.24,North,-9999,0.0,0.0,49,0.00,,,-99.99,FreeWX-Wi 1.01,2018-04-26 15:01:00,
2018-04-26 09:06:00,48.9,31.1,30.24,North,-9999,0.0,0.0,50,0.00,,,-99.99,FreeWX-Wi 1.01,2018-04-26 15:06:00,
2018-04-26 09:11:00,49.5,31.6,30.24,North,-9999,0.0,0.0,50,0.00,,,-99.99,FreeWX-Wi 1.01,2018-04-26 15:11:00,
2018-04-26 09:16:00,50.2,31.3,30.24,North,-9999,0.0,0.0,48,0.00,,,-99.99,FreeWX-Wi 1.01,2018-04-26 15:16:00,
2018-04-26 09:21:00,50.7,30.2,30.24,North,-9999,0.0,0.0,45,0.00,,,-99.99,FreeWX-Wi 1.01,2018-04-26 15:21:00,
2018-04-26 09:26:00,51.3,30.0,30.24,North,-9999,0.0,0.0,44,0.00,,,-99.99,FreeWX-Wi 1.01,2018-04-26 15:26:00,
2018-04-26 09:31:00,51.8,31.6,30.24,North,-9999,0.0,0.0,46,0.00,,,-99.99,FreeWX-Wi 1.01,2018-04-26 15:31:00,
2018-04-26 09:36:00,52.3,31.1,30.24,North,-9999,0.0,0.0,44,0.00,,,-99.99,FreeWX-Wi 1.01,2018-04-26 15:36:00,
2018-04-26 09:41:00,52.7,30.2,30.24,North,-9999,0.0,0.0,42,0.00,,,-99.99,FreeWX-Wi 1.01,2018-04-26 15:41:00,
2018-04-26 09:46:00,53.4,31.5,30.24,North,-9999,0.0,0.0,43,0.00,,,-99.99,FreeWX-Wi 1.01,2018-04-26 15:46:00,
2018-04-26 09:51:00,54.1,31.6,30.24,North,-9999,0.0,0.0,42,0.00,,,-99.99,FreeWX-Wi 1.01,2018-04-26 15:51:00,
2018-04-26 09:56:00,54.7,31.5,30.24,North,-9999,0.0,0.0,41,0.00,,,-99.99,FreeWX-Wi 1.01,2018-04-26 15:56:00,
2018-04-26 10:01:00,55.2,30.7,30.24,North,-9999,0.0,0.0,39,0.00,,,-99.99,FreeWX-Wi 1.01,2018-04-26 16:01:00,
2018-04-26 10:06:00,55.8,31.1,30.24,North,-9999,0.0,0.0,39,0.00,,,-99.99,FreeWX-Wi 1.01,2018-04-26 16:06:00,
2018-04-26 10:11:00,56.3,32.4,30.24,North,-9999,0.0,0.0,40,0.00,,,-99.99,FreeWX-Wi 1.01,2018-04-26 16:11:00,
2018-04-26 10:21:00,56.7,32.0,30.24,North,-9999,0.0,0.0,39,0.00,,,-99.99,FreeWX-Wi 1.01,2018-04-26 16:21:00,
2018-04-26 10:26:00,56.8,31.5,30.24,North,-9999,0.0,0.0,38,0.00,,,-99.99,FreeWX-Wi 1.01,2018-04-26 16:26:00,
2018-04-26 10:31:00,57.2,31.8,30.24,North,-9999,0.0,0.0,38,0.00,,,-99.99,FreeWX-Wi 1.01,2018-04-26 16:31:00,
2018-04-26 10:36:00,57.4,31.3,30.24,North,-9999,0.0,0.0,37,0.00,,,-99.99,FreeWX-Wi 1.01,2018-04-26 16:36:00,
2018-04-26 10:41:00,57.9,31.8,30.24,North,-9999,0.0,0.0,37,0.00,,,-99.99,FreeWX-Wi 1.01,2018-04-26 16:41:00,
2018-04-26 10:46:00,58.3,32.2,30.24,North,-9999,0.0,0.0,37,0.00,,,-99.99,FreeWX-Wi 1.01,2018-04-26 16:46:00,
2018-04-26 10:51:00,58.5,31.6,30.24,North,-9999,0.0,0.0,36,0.00,,,-99.99,FreeWX-Wi 1.01,2018-04-26 16:51:00,
2018-04-26 10:56:00,58.5,31.6,30.24,North,-9999,0.0,0.0,36,0.00,,,-99.99,FreeWX-Wi 1.01,2018-04-26 16:56:00,
2018-04-26 11:01:00,58.5,31.6,30.24,North,-9999,0.0,0.0,36,0.00,,,-99.99,FreeWX-Wi 1.01,2018-04-26 17:01:00,
2018-04-26 11:06:00,58.5,30.9,30.24,North,-9999,0.0,0.0,35,0.00,,,-99.99,FreeWX-Wi 1.01,2018-04-26 17:06:00,
2018-04-26 11:11:00,58.8,32.0,30.24,North,-9999,0.0,0.0,36,0.00,,,-99.99,FreeWX-Wi 1.01,2018-04-26 17:11:00,
2018-04-26 11:16:00,59.5,31.8,30.24,North,-9999,0.0,0.0,35,0.00,,,-99.99,FreeWX-Wi 1.01,2018-04-26 17:16:00,
2018-04-26 11:21:00,59.5,32.5,30.24,North,-9999,0.0,0.0,36,0.00,,,-99.99,FreeWX-Wi 1.01,2018-04-26 17:21:00,
2018-04-26 11:26:00,60.6,32.9,30.24,North,-9999,0.0,0.0,35,0.00,,,-99.99,FreeWX-Wi 1.01,2018-04-26 17:26:00,
2018-04-26 11:31:00,61.0,33.1,30.24,North,-9999,0.0,0.0,35,0.00,,,-99.99,FreeWX-Wi 1.01,2018-04-26 17:31:00,
2018-04-26 11:36:00,61.2,32.5,30.24,North,-9999,0.0,0.0,34,0.00,,,-99.99,FreeWX-Wi 1.01,2018-04-26 17:36:00,
2018-04-26 11:41:00,61.7,33.1,30.24,North,-9999,0.0,0.0,34,0.00,,,-99.99,FreeWX-Wi 1.01,2018-04-26 17:41:00,
2018-04-26 11:46:00,62.2,33.4,30.24,North,-9999,0.0,0.0,34,0.00,,,-99.99,FreeWX-Wi 1.01,2018-04-26 17:46:00,
2018-04-26 11:51:00,62.6,33.1,30.24,North,-9999,0.0,0.0,33,0.00,,,-99.99,FreeWX-Wi 1.01,2018-04-26 17:51:00,
2018-04-26 11:56:00,62.8,33.3,30.24,North,-9999,0.0,0.0,33,0.00,,,-99.99,FreeWX-Wi 1.01,2018-04-26 17:56:00,
2018-04-26 12:01:00,63.1,33.6,30.24,North,-9999,0.0,0.0,33,0.00,,,-99.99,FreeWX-Wi 1.01,2018-04-26 18:01:00,
2018-04-26 12:06:00,63.0,33.4,30.24,North,-9999,0.0,0.0,33,0.00,,,-99.99,FreeWX-Wi 1.01,2018-04-26 18:06:00,
2018-04-26 12:11:00,63.1,33.6,30.24,North,-9999,0.0,0.0,33,0.00,,,-99.99,FreeWX-Wi 1.01,2018-04-26 18:11:00,
2018-04-26 12:16:00,63.5,33.8,30.24,North,-9999,0.0,0.0,33,0.00,,,-99.99,FreeWX-Wi 1.01,2018-04-26 18:16:00,
2018-04-26 12:21:00,63.7,32.5,30.24,North,-9999,0.0,0.0,31,0.00,,,-99.99,FreeWX-Wi 1.01,2018-04-26 18:21:00,
2018-04-26 12:26:00,63.9,33.4,30.24,North,-9999,0.0,0.0,32,0.00,,,-99.99,FreeWX-Wi 1.01,2018-04-26 18:26:00,
2018-04-26 12:31:00,64.8,33.4,30.24,North,-9999,0.0,0.0,31,0.00,,,-99.99,FreeWX-Wi 1.01,2018-04-26 18:31:00,
2018-04-26 12:36:00,65.3,33.8,30.24,North,-9999,0.0,0.0,31,0.00,,,-99.99,FreeWX-Wi 1.01,2018-04-26 18:36:00,
2018-04-26 12:41:00,65.5,32.4,30.24,North,-9999,0.0,0.0,29,0.00,,,-99.99,FreeWX-Wi 1.01,2018-04-26 18:41:00,
2018-04-26 12:46:00,65.7,32.5,30.24,North,-9999,0.0,0.0,29,0.00,,,-99.99,FreeWX-Wi 1.01,2018-04-26 18:46:00,
2018-04-26 12:51:00,65.5,31.5,30.24,North,-9999,0.0,0.0,28,0.00,,,-99.99,FreeWX-Wi 1.01,2018-04-26 18:51:00,
2018-04-26 12:56:00,65.3,31.3,30.24,North,-9999,0.0,0.0,28,0.00,,,-99.99,FreeWX-Wi 1.01,2018-04-26 18:56:00,
2018-04-26 13:01:00,66.2,33.1,30.24,North,-9999,0.0,0.0,29,0.00,,,-99.99,FreeWX-Wi 1.01,2018-04-26 19:01:00,
2018-04-26 13:06:00,66.6,32.4,30.24,North,-9999,0.0,0.0,28,0.00,,,-99.99,FreeWX-Wi 1.01,2018-04-26 19:06:00,
2018-04-26 13:11:00,66.6,33.3,30.24,North,-9999,0.0,0.0,29,0.00,,,-99.99,FreeWX-Wi 1.01,2018-04-26 19:11:00,
2018-04-26 13:16:00,67.3,33.1,30.21,North,-9999,0.0,0.0,28,0.00,,,-99.99,FreeWX-Wi 1.01,2018-04-26 19:16:00,
2018-04-26 13:21:00,67.8,33.4,30.21,North,-9999,0.0,0.0,28,0.00,,,-99.99,FreeWX-Wi 1.01,2018-04-26 19:21:00,
2018-04-26 13:26:00,67.8,32.5,30.21,North,-9999,0.0,0.0,27,0.00,,,-99.99,FreeWX-Wi 1.01,2018-04-26 19:26:00,
2018-04-26 13:31:00,68.0,32.7,30.21,North,-9999,0.0,0.0,27,0.00,,,-99.99,FreeWX-Wi 1.01,2018-04-26 19:31:00,
2018-04-26 13:36:00,68.4,33.1,30.21,North,-9999,0.0,0.0,27,0.00,,,-99.99,FreeWX-Wi 1.01,2018-04-26 19:36:00,
2018-04-26 13:41:00,68.4,33.1,30.21,North,-9999,0.0,0.0,27,0.00,,,-99.99,FreeWX-Wi 1.01,2018-04-26 19:41:00,
2018-04-26 13:46:00,68.7,32.4,30.21,North,-9999,0.0,0.0,26,0.00,,,-99.99,FreeWX-Wi 1.01,2018-04-26 19:46:00,
2018-04-26 13:51:00,68.2,32.0,30.21,North,-9999,0.0,0.0,26,0.00,,,-99.99,FreeWX-Wi 1.01,2018-04-26 19:51:00,
2018-04-26 13:56:00,69.1,33.6,30.21,North,-9999,0.0,0.0,27,0.00,,,-99.99,FreeWX-Wi 1.01,2018-04-26 19:56:00,
2018-04-26 14:01:00,69.6,33.3,30.21,North,-9999,0.0,0.0,26,0.00,,,-99.99,FreeWX-Wi 1.01,2018-04-26 20:01:00,
2018-04-26 14:06:00,69.8,32.4,30.21,North,-9999,0.0,0.0,25,0.00,,,-99.99,FreeWX-Wi 1.01,2018-04-26 20:06:00,
2018-04-26 14:11:00,70.2,32.7,30.21,North,-9999,0.0,0.0,25,0.00,,,-99.99,FreeWX-Wi 1.01,2018-04-26 20:11:00,
2018-04-26 14:16:00,70.0,32.5,30.21,North,-9999,0.0,0.0,25,0.00,,,-99.99,FreeWX-Wi 1.01,2018-04-26 20:16:00,
2018-04-26 14:21:00,70.9,33.3,30.21,North,-9999,0.0,0.0,25,0.00,,,-99.99,FreeWX-Wi 1.01,2018-04-26 20:21:00,
2018-04-26 14:26:00,71.1,33.4,30.21,North,-9999,0.0,0.0,25,0.00,,,-99.99,FreeWX-Wi 1.01,2018-04-26 20:26:00,
2018-04-26 14:31:00,71.2,33.6,30.21,North,-9999,0.0,0.0,25,0.00,,,-99.99,FreeWX-Wi 1.01,2018-04-26 20:31:00,
2018-04-26 14:36:00,71.6,32.9,30.21,North,-9999,0.0,0.0,24,0.00,,,-99.99,FreeWX-Wi 1.01,2018-04-26 20:36:00,
2018-04-26 14:41:00,72.5,33.6,30.21,North,-9999,0.0,0.0,24,0.00,,,-99.99,FreeWX-Wi 1.01,2018-04-26 20:41:00,
2018-04-26 14:46:00,73.0,33.1,30.18,North,-9999,0.0,0.0,23,0.00,,,-99.99,FreeWX-Wi 1.01,2018-04-26 20:46:00,
2018-04-26 14:51:00,72.9,32.9,30.18,North,-9999,0.0,0.0,23,0.00,,,-99.99,FreeWX-Wi 1.01,2018-04-26 20:51:00,
2018-04-26 14:56:00,73.0,33.1,30.18,North,-9999,0.0,0.0,23,0.00,,,-99.99,FreeWX-Wi 1.01,2018-04-26 20:56:00,
2018-04-26 15:01:00,73.8,33.6,30.18,North,-9999,0.0,0.0,23,0.00,,,-99.99,FreeWX-Wi 1.01,2018-04-26 21:01:00,
2018-04-26 15:06:00,74.7,34.3,30.18,North,-9999,0.0,0.0,23,0.00,,,-99.99,FreeWX-Wi 1.01,2018-04-26 21:06:00,
2018-04-26 15:11:00,74.7,33.3,30.18,North,-9999,0.0,0.0,22,0.00,,,-99.99,FreeWX-Wi 1.01,2018-04-26 21:11:00,
2018-04-26 15:16:00,73.4,32.2,30.18,North,-9999,0.0,0.0,22,0.00,,,-99.99,FreeWX-Wi 1.01,2018-04-26 21:16:00,
2018-04-26 15:21:00,73.0,32.0,30.18,North,-9999,0.0,0.0,22,0.00,,,-99.99,FreeWX-Wi 1.01,2018-04-26 21:21:00,
2018-04-26 15:26:00,74.3,32.9,30.18,North,-9999,0.0,0.0,22,0.00,,,-99.99,FreeWX-Wi 1.01,2018-04-26 21:26:00,
2018-04-26 15:31:00,74.8,33.4,30.18,North,-9999,0.0,0.0,22,0.00,,,-99.99,FreeWX-Wi 1.01,2018-04-26 21:31:00,
2018-04-26 15:36:00,75.6,32.9,30.18,North,-9999,0.0,0.0,21,0.00,,,-99.99,FreeWX-Wi 1.01,2018-04-26 21:36:00,
2018-04-26 15:41:00,75.9,34.3,30.18,North,-9999,0.0,0.0,22,0.00,,,-99.99,FreeWX-Wi 1.01,2018-04-26 21:41:00,
2018-04-26 15:46:00,75.7,33.1,30.15,North,-9999,0.0,0.0,21,0.00,,,-99.99,FreeWX-Wi 1.01,2018-04-26 21:46:00,
2018-04-26 15:51:00,76.5,34.7,30.15,North,-9999,0.0,0.0,22,0.00,,,-99.99,FreeWX-Wi 1.01,2018-04-26 21:51:00,
2018-04-26 15:56:00,75.9,33.1,30.15,North,-9999,0.0,0.0,21,0.00,,,-99.99,FreeWX-Wi 1.01,2018-04-26 21:56:00,
2018-04-26 16:01:00,75.7,34.2,30.15,North,-9999,0.0,0.0,22,0.00,,,-99.99,FreeWX-Wi 1.01,2018-04-26 22:01:00,
2018-04-26 16:06:00,76.5,33.6,30.15,North,-9999,0.0,0.0,21,0.00,,,-99.99,FreeWX-Wi 1.01,2018-04-26 22:06:00,
2018-04-26 16:11:00,75.7,33.1,30.15,North,-9999,0.0,0.0,21,0.00,,,-99.99,FreeWX-Wi 1.01,2018-04-26 22:11:00,
2018-04-26 16:16:00,75.7,33.1,30.15,North,-9999,0.0,0.0,21,0.00,,,-99.99,FreeWX-Wi 1.01,2018-04-26 22:16:00,
2018-04-26 16:21:00,76.6,34.9,30.15,North,-9999,0.0,0.0,22,0.00,,,-99.99,FreeWX-Wi 1.01,2018-04-26 22:21:00,
2018-04-26 16:26:00,77.5,34.5,30.15,North,-9999,0.0,0.0,21,0.00,,,-99.99,FreeWX-Wi 1.01,2018-04-26 22:26:00,
2018-04-26 16:31:00,77.7,34.7,30.15,North,-9999,0.0,0.0,21,0.00,,,-99.99,FreeWX-Wi 1.01,2018-04-26 22:31:00,
2018-04-26 16:36:00,77.9,34.9,30.15,North,-9999,0.0,0.0,21,0.00,,,-99.99,FreeWX-Wi 1.01,2018-04-26 22:36:00,
2018-04-26 16:41:00,78.3,35.1,30.15,North,-9999,0.0,0.0,21,0.00,,,-99.99,FreeWX-Wi 1.01,2018-04-26 22:41:00,
2018-04-26 16:46:00,77.5,33.3,30.15,North,-9999,0.0,0.0,20,0.00,,,-99.99,FreeWX-Wi 1.01,2018-04-26 22:46:00,
2018-04-26 16:51:00,77.2,34.2,30.15,North,-9999,0.0,0.0,21,0.00,,,-99.99,FreeWX-Wi 1.01,2018-04-26 22:51:00,
2018-04-26 16:56:00,76.6,32.5,30.15,North,-9999,0.0,0.0,20,0.00,,,-99.99,FreeWX-Wi 1.01,2018-04-26 22:56:00,
2018-04-26 17:01:00,76.6,33.8,30.12,North,-9999,0.0,0.0,21,0.00,,,-99.99,FreeWX-Wi 1.01,2018-04-26 23:01:00,
2018-04-26 17:06:00,77.2,34.2,30.12,North,-9999,0.0,0.0,21,0.00,,,-99.99,FreeWX-Wi 1.01,2018-04-26 23:06:00,
2018-04-26 17:11:00,77.4,33.1,30.12,North,-9999,0.0,0.0,20,0.00,,,-99.99,FreeWX-Wi 1.01,2018-04-26 23:11:00,
2018-04-26 17:16:00,76.6,33.8,30.12,North,-9999,0.0,0.0,21,0.00,,,-99.99,FreeWX-Wi 1.01,2018-04-26 23:16:00,
2018-04-26 17:21:00,75.9,33.1,30.12,North,-9999,0.0,0.0,21,0.00,,,-99.99,FreeWX-Wi 1.01,2018-04-26 23:21:00,
2018-04-26 17:26:00,76.1,33.3,30.12,North,-9999,0.0,0.0,21,0.00,,,-99.99,FreeWX-Wi 1.01,2018-04-26 23:26:00,
2018-04-26 17:31:00,75.7,33.1,30.12,North,-9999,0.0,0.0,21,0.00,,,-99.99,FreeWX-Wi 1.01,2018-04-26 23:31:00,
2018-04-26 17:36:00,75.6,32.9,30.12,North,-9999,0.0,0.0,21,0.00,,,-99.99,FreeWX-Wi 1.01,2018-04-26 23:36:00,
2018-04-26 17:41:00,75.2,32.5,30.12,North,-9999,0.0,0.0,21,0.00,,,-99.99,FreeWX-Wi 1.01,2018-04-26 23:41:00,
2018-04-26 17:46:00,74.8,32.4,30.12,North,-9999,0.0,0.0,21,0.00,,,-99.99,FreeWX-Wi 1.01,2018-04-26 23:46:00,